Regional Weather Roundup
Issued by NWS Wilmington, NC

Home | Current Version | Previous Version | Text Only | Print | Product List | Glossary On
Versions: 1 2 3 4 5 6 7 8 9 10 11 12 13 14 15 16 17 18 19 20 21 22 23 24 25 26 27 28
000
ASUS42 KILM 220612
RWRILM
RWRILM
REGIONAL HOURLY WEATHER ROUNDUP
NATIONAL WEATHER SERVICE WILMINGTON NC
100 AM EST SUN JAN 22 2017

NOTE: "FAIR" INDICATES FEW OR NO CLOUDS BELOW 12,000 FEET WITH NO
SIGNIFICANT WEATHER AND/OR OBSTRUCTIONS TO VISIBILITY.

...............WFO WILMINGTON COUNTY WARNING AREA...............

......COASTAL NC AND SC COUNTIES......

CITY           SKY/WX    TMP DP  RH WIND       PRES   REMARKS
WILMINGTON     MOCLDY    60  58  92 SW13      29.67R
N MYRTLE BEACH PTCLDY    60  59  96 SW10G20   29.69S
MYRTLE BEACH   PTCLDY    61  55  82 SW9       29.72S

......INLAND NC AND SC COUNTIES.......

CITY           SKY/WX    TMP DP  RH WIND       PRES   REMARKS
LUMBERTON      CLOUDY    62  59  90 SW10      29.66S
ELIZABETHTOWN  CLOUDY    62  61  97 SW7       29.67R
WHITEVILLE     CLOUDY    60  59  95 S8        29.68S
FLORENCE       CLOUDY    62  59  90 SW12      29.67S
DARLINGTON     CLOUDY    61  58  90 SW7       29.67S
KINGSTREE      CLOUDY    59  55  88 S3        29.69F
HARTSVILLE     CLOUDY    59  55  88 SW3       29.66S
BENNETTSVILLE  CLOUDY    63  61  94 SW9       29.65S
CONWAY         CLOUDY    59  57  94 SW6       29.70S
GEORGETOWN     NOT AVBL
MARION         CLOUDY    59  55  88 SW10G16   29.68S

....................REST OF NORTH CAROLINA......................

.........EASTERN NC.........

CITY           SKY/WX    TMP DP  RH WIND       PRES   REMARKS
CAPE HATTERAS  CLOUDY    64  62  93 S8        29.63F FOG
JACKSONVILLE   NOT AVBL
MOREHEAD CITY  NOT AVBL
KENANSVILLE    CLOUDY    63  63 100 CALM      29.63F
NEW BERN       FOG       56  56 100 CALM      29.64F VSB 1/4
ELIZABETH CITY FOG       56  56 100 S3        29.64F VSB 3/4

.........CENTRAL NC.........

CITY           SKY/WX    TMP DP  RH WIND       PRES   REMARKS
RALEIGH DURHAM FOG       54  54 100 CALM      29.64F VSB 1/8
ROCKY MOUNT    FOG       56  56 100 CALM      29.62F VSB 1/4
ROANOKE RAPIDS NOT AVBL
FAYETTEVILLE   CLOUDY    63  60  90 S12       29.64S
HOFFMAN        CLOUDY    61  59  94 SW13      29.63F

.........WESTERN NC.........

CITY           SKY/WX    TMP DP  RH WIND       PRES   REMARKS
CHARLOTTE      DRIZZLE   55  53  93 N5        29.65F
GREENSBORO     LGT RAIN  52  52 100 NE6       29.66S FOG
HICKORY        NOT AVBL
BOONE          NOT AVBL
ASHEVILLE      NOT AVBL

.....................REST OF SOUTH CAROLINA.....................

.........EASTERN SC.........

CITY           SKY/WX    TMP DP  RH WIND       PRES   REMARKS
CHARLESTON     PTCLDY    59  57  93 SW5       29.70F
BEAUFORT MCAS  FOG       57  56  96 N5        29.69F VSB 3/4
HILTON HEAD    CLOUDY    63  63 100 SW7       29.70F

.........CENTRAL SC.........

CITY           SKY/WX    TMP DP  RH WIND       PRES   REMARKS
COLUMBIA       CLOUDY    62  57  83 W7        29.66F
ORANGEBURG     CLOUDY    60  58  92 SW7       29.68F
SUMTER SHAW    CLOUDY    61  56  84 SW13      29.65F

.........WESTERN SC.........

CITY           SKY/WX    TMP DP  RH WIND       PRES   REMARKS
GREENVILLE     NOT AVBL
ROCK HILL      CLOUDY    55  54  96 CALM      29.66S FOG
ANDERSON       CLOUDY    56  55  97 SW3       29.69R FOG
CLEMSON        NOT AVBL
GREENWOOD      CLOUDY    56  55  97 W3        29.70S FOG


...................COASTAL AND OFFSHORE REPORTS..................

................LOCAL PIERS AND NC RESERVE................


STATION/POSITION TIME  SKY/WX   TEMP    WIND        PRES    VSBY
                                AIR SEA DIR/SP/G
                 (UTC)          (F)     (DEG/KT/KT) (MB)    (MI)
JOHNY MRCER PIER 0548            61 55  240/ 11/ 13 1003.4R
NC RESRV MASNBRO 0445            61     270/  3     1004.0
OCEAN CREST PIER NOT AVBL
SPRINGMAID  PIER NOT AVBL


................COASTAL AND OFFSHORE BUOYS................


STATION/POSITION TIME  SKY/WX   TEMP    WIND        PRES    VSBY
                                AIR SEA DIR/SP/G
                 (UTC)          (F)     (DEG/KT/KT) (MB)    (MI)
DIMNDSHOAL 41025 0550            73 74  190/ 21/ 25 1003.3F
WVE H/P(F/S)=  6/ 6 SWL H/P/D(F/S/D)=  2/ 70/ 9

CAPE LOOKOUT     0500            66     220/  6/  9 1003.8F
ONSLOW BAY 41036 NOT AVBL
ONSLOW BAY 41064 0508            64 67  240/ 12/ 17 1004.3F
ONSLOW BAY 41159 0543               66                N/A
WVE H/P(F/S)=  4/10 SWL H/P/D(F/S/D)=  2/ 90/11

MASNBO INL 41110 0559               53                N/A
WVE H/P(F/S)=  3/11 SWL H/P/D(F/S/D)=  2/100/11

WILM HARBR 41108 0556               57                N/A
WVE H/P(F/S)=  4/ 5

27SE WRITB 41037 0508            66 70  250/ 14/ 17 1004.0R
FRYING PAN 41013 0550            71 70  210/ 19/ 25 1005.1R
WVE H/P(F/S)=  5/ 6 SWL H/P/D(F/S/D)=  2/ 80/12

SUNST NRSH 41024 0508            58 55  250/ 12/ 16 1005.1F
CAPRS NRSH 41029 0508            58 56  250/  6/  8 1005.5F
EDISTO     41004 0550            70 68  220/ 16/ 17 1005.1F
WVE H/P(F/S)=  5/ 6 SWL H/P/D(F/S/D)=  2/ 70/11



..........OFFSHORE BUOYS BEYOND 100 NM OFFSHORE...........
.....IN A TRIANGLE---HAT TO BERMUDA TO BAHAMAS TO HAT.....


STATION/POSITION TIME  SKY/WX   TEMP    WIND        PRES    VSBY
                                AIR SEA DIR/SP/G
                 (UTC)          (F)     (DEG/KT/KT) (MB)    (MI)
150E HAT   41001 NOT AVBL
W BERMUDA  41048 0550            69 70  260/ 10/ 12 1011.9F
WVE H/P(F/S)=  6/12 SWL H/P/D(F/S/D)=  5/ 60/12

ATLANTIC S 41049 0550            69 75  280/  8/ 10 1015.0S
WVE H/P(F/S)=  8/12 SWL H/P/D(F/S/D)=  8/ 10/12

E BAHAMAS  41046 0550            74 78  120/  2/  4 1015.6F
WVE H/P(F/S)=  4/10 SWL H/P/D(F/S/D)=  3/10

NE BAHAMAS 41047 0550            74 75  230/ 14/ 17 1014.4F
WVE H/P(F/S)=  4/10 SWL H/P/D(F/S/D)=  3/ 50/10

120E CANVRL41010 NOT AVBL

END




USA.gov is the U.S. government's official web portal to all federal, state and local government web resources and services.